Weather History for KCOQ - November, 2012

Change the Weather History Date:

Friday, November 16, 2012

  Actual Average Record
Temperature  
Mean Temperature 26 °F -  
Max Temperature 39 °F 34 °F 46 °F (2001)
Min Temperature 12 °F 22 °F 6 °F (2005)
Degree Days  
Heating Degree Days 40    
Moisture  
Dew Point 15 °F    
Average Humidity 65    
Maximum Humidity 85    
Minimum Humidity 30    
Precipitation  
Precipitation 0.00 in - - ()
Sea Level Pressure  
Sea Level Pressure 30.40 in    
Wind  
Wind Speed 4 mph (ESE)    
Max Wind Speed 8 mph    
Max Gust Speed -    
Visibility 10 miles    
Events      
Averages and records for this station are not official NWS values.
T = Trace of Precipitation, MM = Missing Value Source: NWS Daily Summary

Daily Weather History Graph

Daily Weather History Graph

Search for Another Location

Airport or City:

Trip Planner

Search our weather history database for the weather conditions in past years. The results will help you decide how hot, cold, wet, or windy it might be!

Date:

Astronomy

Nov. 16, 2012 Rise Set
Actual Time 7:14 AM CST 4:34 PM CST
Civil Twilight 6:41 AM CST 5:07 PM CST
Nautical Twilight 6:04 AM CST 5:44 PM CST
Astronomical Twilight 5:28 AM CST 6:20 PM CST
Moon 10:12 AM CST (11/16) 7:32 PM CST (11/16)
Length of Visible Light 10h 26m
Length of Day
9h 19m
Waxing Crescent, 12% of the Moon is Illuminated
Nov 16
Waxing Crescent
Nov 20
First Quarter
Nov 28
Full
Dec 6
Last Quarter
Dec 13
New

Hourly Weather History & Observations

Time (CST) Temp. Windchill Dew Point Humidity Pressure Visibility Wind Dir Wind Speed Gust Speed Precip Events Conditions
12:15 AM 19.4 °F 10.4 °F 6.8 °F 58% 30.45 in 10.0 mi NW 6.9 mph - N/A   Clear
12:36 AM 21.2 °F 11.7 °F 6.8 °F 54% 30.45 in 10.0 mi NNW 8.1 mph - N/A   Clear
12:56 AM 19.4 °F 9.5 °F 8.6 °F 63% 30.45 in 10.0 mi North 8.1 mph - N/A   Clear
1:16 AM 19.4 °F - 8.6 °F 63% 30.45 in 10.0 mi Calm Calm - N/A   Clear
1:36 AM 21.2 °F - 8.6 °F 58% 30.45 in 10.0 mi Calm Calm - N/A   Clear
1:56 AM 21.2 °F - 8.6 °F 58% 30.44 in 10.0 mi Calm Calm - N/A   Clear
2:16 AM 19.4 °F - 8.6 °F 63% 30.45 in 10.0 mi Calm Calm - N/A   Clear
2:36 AM 19.4 °F - 8.6 °F 63% 30.44 in 10.0 mi Calm Calm - N/A   Clear
2:56 AM 17.6 °F - 8.6 °F 68% 30.44 in 10.0 mi Calm Calm - N/A   Clear
3:16 AM 15.8 °F - 8.6 °F 73% 30.44 in 10.0 mi Calm Calm - N/A   Clear
3:36 AM 15.8 °F - 8.6 °F 73% 30.44 in 10.0 mi Calm Calm - N/A   Clear
3:55 AM 15.8 °F - 8.6 °F 73% 30.44 in 10.0 mi Calm Calm - N/A   Clear
4:16 AM 15.8 °F - 8.6 °F 73% 30.44 in 10.0 mi Calm Calm - N/A   Clear
4:36 AM 15.8 °F - 8.6 °F 73% 30.44 in 10.0 mi Calm Calm - N/A   Clear
4:55 AM 14.0 °F - 8.6 °F 79% 30.44 in 10.0 mi Calm Calm - N/A   Clear
5:16 AM 15.8 °F - 8.6 °F 73% 30.44 in 10.0 mi Calm Calm - N/A   Clear
5:36 AM 14.0 °F 8.2 °F 8.6 °F 79% 30.44 in 10.0 mi NNW 3.5 mph - N/A   Clear
5:56 AM 14.0 °F 8.2 °F 8.6 °F 79% 30.44 in 10.0 mi NW 3.5 mph - N/A   Clear
6:16 AM 14.0 °F 8.2 °F 8.6 °F 79% 30.45 in 10.0 mi NNW 3.5 mph - N/A   Clear
6:36 AM 12.2 °F 6.1 °F 8.6 °F 85% 30.45 in 10.0 mi NW 3.5 mph - N/A   Clear
6:56 AM 14.0 °F 8.2 °F 8.6 °F 79% 30.45 in 10.0 mi NNW 3.5 mph - N/A   Clear
7:16 AM 12.2 °F 6.1 °F 8.6 °F 85% 30.45 in 10.0 mi NNW 3.5 mph - N/A   Clear
7:36 AM 14.0 °F 8.2 °F 8.6 °F 79% 30.46 in 10.0 mi NNW 3.5 mph - N/A   Clear
7:56 AM 15.8 °F - 10.4 °F 79% 30.46 in 10.0 mi Calm Calm - N/A   Clear
8:15 AM 17.6 °F - 12.2 °F 79% 30.46 in 10.0 mi Calm Calm - N/A   Clear
8:36 AM 21.2 °F - 15.8 °F 80% 30.46 in 10.0 mi Calm Calm - N/A   Clear
8:56 AM 24.8 °F - 15.8 °F 69% 30.46 in 10.0 mi Calm Calm - N/A   Clear
9:15 AM 26.6 °F - 17.6 °F 69% 30.46 in 10.0 mi Calm Calm - N/A   Clear
9:36 AM 28.4 °F 23.3 °F 17.6 °F 64% 30.46 in 10.0 mi ESE 4.6 mph - N/A   Clear
9:56 AM 30.2 °F 24.3 °F 17.6 °F 60% 30.46 in 10.0 mi SE 5.8 mph - N/A   Clear
10:15 AM 30.2 °F 24.3 °F 17.6 °F 60% 30.46 in 10.0 mi SE 5.8 mph - N/A   Clear
10:36 AM 32.0 °F 26.4 °F 19.4 °F 60% 30.46 in 10.0 mi ESE 5.8 mph - N/A   Clear
10:56 AM 33.8 °F 29.6 °F 19.4 °F 56% 30.46 in 10.0 mi South 4.6 mph - N/A   Clear
11:15 AM 33.8 °F 27.0 °F 19.4 °F 56% 30.46 in 10.0 mi SSE 8.1 mph - N/A   Clear
11:36 AM 35.6 °F 29.2 °F 19.4 °F 52% 30.46 in 10.0 mi SSE 8.1 mph - N/A   Clear
11:56 AM 35.6 °F 29.2 °F 17.6 °F 48% 30.45 in 10.0 mi SSW 8.1 mph - N/A   Clear
12:15 PM 35.6 °F 29.9 °F 15.8 °F 44% 30.44 in 10.0 mi SSE 6.9 mph - N/A   Clear
12:36 PM 35.6 °F 31.7 °F 15.8 °F 44% 30.43 in 10.0 mi SE 4.6 mph - N/A   Clear
12:56 PM 37.4 °F 32.8 °F 15.8 °F 41% 30.43 in 10.0 mi South 5.8 mph - N/A   Clear
1:15 PM 37.4 °F 34.9 °F 15.8 °F 41% 30.43 in 10.0 mi SE 3.5 mph - N/A   Clear
1:36 PM 37.4 °F 32.8 °F 15.8 °F 41% 30.41 in 10.0 mi SSE 5.8 mph - N/A   Clear
1:56 PM 37.4 °F 32.1 °F 15.8 °F 41% 30.39 in 10.0 mi SE 6.9 mph - N/A   Clear
2:15 PM 37.4 °F 32.8 °F 15.8 °F 41% 30.38 in 10.0 mi SSE 5.8 mph - N/A   Clear
2:36 PM 39.2 °F 34.2 °F 10.4 °F 31% 30.37 in 10.0 mi SE 6.9 mph - N/A   Clear
2:56 PM 39.2 °F 34.2 °F 10.4 °F 31% 30.36 in 10.0 mi SE 6.9 mph - N/A   Clear
3:15 PM 37.4 °F 32.1 °F 8.6 °F 30% 30.35 in 10.0 mi SE 6.9 mph - N/A   Clear
3:36 PM 37.4 °F 32.8 °F 15.8 °F 41% 30.36 in 10.0 mi ESE 5.8 mph - N/A   Clear
3:56 PM 35.6 °F 32.8 °F 17.6 °F 48% 30.36 in 10.0 mi East 3.5 mph - N/A   Clear
4:15 PM 35.6 °F 32.8 °F 19.4 °F 52% 30.36 in 10.0 mi ESE 3.5 mph - N/A   Clear
4:36 PM 33.8 °F 30.8 °F 19.4 °F 56% 30.36 in 10.0 mi East 3.5 mph - N/A   Clear
4:56 PM 32.0 °F 27.5 °F 19.4 °F 60% 30.35 in 10.0 mi ESE 4.6 mph - N/A   Clear
5:16 PM 30.2 °F 26.7 °F 19.4 °F 64% 30.35 in 10.0 mi East 3.5 mph - N/A   Clear
5:35 PM 30.2 °F 26.7 °F 21.2 °F 69% 30.34 in 10.0 mi East 3.5 mph - N/A   Clear
5:56 PM 30.2 °F 26.7 °F 21.2 °F 69% 30.34 in 10.0 mi East 3.5 mph - N/A   Clear
6:16 PM 28.4 °F 24.6 °F 21.2 °F 74% 30.33 in 10.0 mi East 3.5 mph - N/A   Clear
6:36 PM 28.4 °F 24.6 °F 21.2 °F 74% 30.32 in 10.0 mi ESE 3.5 mph - N/A   Clear
6:56 PM 28.4 °F - 23.0 °F 80% 30.32 in 10.0 mi Calm Calm - N/A   Clear
7:16 PM 28.4 °F - 23.0 °F 80% 30.32 in 10.0 mi Calm Calm - N/A   Clear
7:36 PM 28.4 °F 24.6 °F 23.0 °F 80% 30.32 in 10.0 mi ESE 3.5 mph - N/A   Clear
7:56 PM 28.4 °F 24.6 °F 23.0 °F 80% 30.31 in 10.0 mi ESE 3.5 mph - N/A   Clear
8:16 PM 28.4 °F 23.3 °F 23.0 °F 80% 30.31 in 10.0 mi ESE 4.6 mph - N/A   Clear
8:36 PM 28.4 °F 24.6 °F 23.0 °F 80% 30.31 in 10.0 mi ESE 3.5 mph - N/A   Clear
8:55 PM 28.4 °F 24.6 °F 23.0 °F 80% 30.31 in 10.0 mi ESE 3.5 mph - N/A   Clear
9:16 PM 28.4 °F - 21.2 °F 74% 30.31 in 10.0 mi Calm Calm - N/A   Clear
10:16 PM 28.4 °F 24.6 °F 21.2 °F 74% 30.30 in 10.0 mi ESE 3.5 mph - N/A   Scattered Clouds
10:36 PM 28.4 °F 23.3 °F 21.2 °F 74% 30.30 in 10.0 mi ESE 4.6 mph - N/A   Scattered Clouds
10:56 PM 28.4 °F 23.3 °F 19.4 °F 69% 30.29 in 10.0 mi ESE 4.6 mph - N/A   Clear
11:16 PM 28.4 °F 24.6 °F 19.4 °F 69% 30.29 in 10.0 mi ESE 3.5 mph - N/A   Clear
11:36 PM 28.4 °F 24.6 °F 19.4 °F 69% 30.30 in 10.0 mi SE 3.5 mph - N/A   Clear
11:55 PM 28.4 °F 24.6 °F 21.2 °F 74% 30.30 in 10.0 mi ESE 3.5 mph - N/A   Clear